This is the latest recevied weather packets stored in our database for station/object W4JCW. If no packets are shown the sender has not sent any weather packets the latest 10 day(s).
| Time | Temp. | Humidity | Pressure | Rain* | Wind** | Luminosity | Snow |
|---|---|---|---|---|---|---|---|
| 1777763096 | 14.44° C | 78% | 1010.8 hPa | 0 mm | - | 72 W/m² | - |
| 1777762793 | 14.44° C | 77% | 1010.7 hPa | 0 mm | - | 65 W/m² | - |
| 1777762490 | 14.44° C | 76% | 1010.7 hPa | 0 mm | - | 52 W/m² | - |
| 1777762187 | 14.44° C | 77% | 1010.8 hPa | 0 mm | - | 43 W/m² | - |
| 1777761883 | 14.44° C | 77% | 1010.9 hPa | 0 mm | - | 40 W/m² | - |
| 1777761580 | 14.44° C | 76% | 1010.7 hPa | 0 mm | - | 58 W/m² | - |
| 1777761278 | 14.44° C | 76% | 1010.5 hPa | 0 mm | - | 75 W/m² | - |
| 1777760976 | 14.44° C | 76% | 1010.6 hPa | 0 mm | - | 88 W/m² | - |
| 1777760673 | 14.44° C | 76% | 1010.5 hPa | 0 mm | - | 87 W/m² | - |
| 1777760368 | 14.44° C | 77% | 1010.6 hPa | 0 mm | - | 93 W/m² | - |
| 1777760065 | 14.44° C | 74% | 1010.5 hPa | 0 mm | - | 111 W/m² | - |
| 1777759762 | 14.44° C | 74% | 1010.6 hPa | 0 mm | - | 122 W/m² | - |
| 1777759457 | 14.44° C | 74% | 1010.6 hPa | 0 mm | - | 115 W/m² | - |
| 1777759154 | 14.44° C | 76% | 1010.5 hPa | 0 mm | - | 118 W/m² | - |
| 1777758852 | 14.44° C | 75% | 1010.6 hPa | 0 mm | - | 119 W/m² | - |
| 1777758548 | 14.44° C | 74% | 1010.5 hPa | 0 mm | - | 100 W/m² | - |
| 1777758245 | 14.44° C | 74% | 1010.4 hPa | 0 mm | - | 88 W/m² | - |
| 1777757942 | 14.44° C | 73% | 1010.4 hPa | 0 mm | - | 101 W/m² | - |
| 1777757639 | 14.44° C | 74% | 1010.3 hPa | 0 mm | - | 117 W/m² | - |
| 1777757338 | 14.44° C | 73% | 1010.2 hPa | 0 mm | - | 134 W/m² | - |
| 1777757036 | 14.44° C | 73% | 1010.5 hPa | 0 mm | - | 140 W/m² | - |
| 1777756733 | 14.44° C | 74% | 1010.3 hPa | 0 mm | - | 151 W/m² | - |
| 1777756429 | 14.44° C | 74% | 1010.2 hPa | 0 mm | - | 165 W/m² | - |
| 1777756126 | 14.44° C | 74% | 1010.3 hPa | 0 mm | - | 165 W/m² | - |
| 1777755823 | 14.44° C | 72% | 1010.3 hPa | 0 mm | - | 177 W/m² | - |
* Rain latest hour (hover to see other rain measurements)
** Current wind speed in m/s (hover to see current wind gust speed)